Location: Sternwarte auf dem Internationalen Platz Vogelsang IP
(50.5721°N, 6.4398°E)
Time: 01:11:04
(UTC+01:00)

Altair - All Passes

Search period start: 06 December 2025 00:00
Search period end: 16 December 2025 00:00
Orbit: 1501 x 1682 km, 47.2° (Epoch: 05 December)

Date Brightness Start Highest point End Pass type
(mag) Time Alt. Az. Time Alt. Az. Time Alt. Az.
06 Dec - 01:10:22 10° SSW 01:19:27 43° SSE 01:28:13 10° E visible
06 Dec - 03:13:44 10° WSW 03:23:24 71° S 03:32:43 10° E visible
06 Dec - 05:18:18 10° W 05:27:47 68° SSW 05:36:56 10° ESE visible
06 Dec - 07:23:06 10° W 07:31:29 38° SW 07:39:40 10° SSE visible
06 Dec - 09:31:23 10° WSW 09:33:52 11° WSW 09:36:21 10° SW daylight
06 Dec - 22:47:04 10° SSE 22:51:35 14° SE 22:56:02 10° E night (unlit)
07 Dec - 00:45:18 10° SSW 00:54:17 41° SE 01:02:59 10° E visible
07 Dec - 02:48:30 10° WSW 02:58:12 69° SSE 03:07:31 10° E visible
07 Dec - 04:53:02 10° W 05:02:35 69° SSW 05:11:46 10° ESE visible
07 Dec - 06:57:48 10° W 07:06:22 40° SW 07:14:42 10° SSE visible
07 Dec - 09:05:11 10° W 09:08:51 13° SW 09:12:30 10° SSW daylight
07 Dec - 22:22:54 10° SE 22:26:32 13° SE 22:30:07 10° ESE night (unlit)
08 Dec - 00:20:15 10° SSW 00:29:09 39° SE 00:37:44 10° E night (unlit)
08 Dec - 02:23:15 10° WSW 02:32:59 68° SSE 02:42:19 10° E visible
08 Dec - 04:27:46 10° W 04:37:23 71° S 04:46:36 10° ESE visible
08 Dec - 06:32:31 10° W 06:41:14 43° SW 06:49:42 10° SSE visible
08 Dec - 08:39:20 10° W 08:43:50 15° SW 08:48:17 10° SSW daylight
08 Dec - 21:59:08 10° SE 22:01:29 11° ESE 22:03:49 10° ESE night (unlit)
08 Dec - 23:55:14 10° SSW 00:03:59 37° SE 00:12:29 10° E night (unlit)
09 Dec - 01:58:02 10° WSW 02:07:46 67° SSE 02:17:07 10° E visible
09 Dec - 04:02:31 10° W 04:12:10 72° S 04:21:26 10° ESE visible
09 Dec - 06:07:15 10° W 06:16:06 45° SSW 06:24:41 10° SE visible
09 Dec - 08:13:38 10° W 08:18:48 16° SW 08:23:54 10° SSW daylight
09 Dec - 23:30:14 10° SSW 23:38:51 35° SE 23:47:13 10° E night (unlit)
10 Dec - 01:32:48 10° WSW 01:42:33 65° SSE 01:51:55 10° E visible
10 Dec - 03:37:15 10° W 03:46:57 73° S 03:56:15 10° ESE visible
10 Dec - 05:41:58 10° W 05:50:58 48° SSW 05:59:39 10° SE visible
10 Dec - 07:48:02 10° W 07:53:46 18° SW 07:59:24 10° SSW visible
10 Dec - 23:05:16 10° SSW 23:13:43 33° SE 23:21:56 10° E night (unlit)
11 Dec - 01:07:36 10° WSW 01:17:21 63° SSE 01:26:43 10° E visible
11 Dec - 03:11:59 10° W 03:21:44 73° S 03:31:05 10° ESE visible
11 Dec - 05:16:42 10° W 05:25:49 50° SSW 05:34:36 10° SE visible
11 Dec - 07:22:31 10° W 07:28:43 20° SW 07:34:48 10° S visible
11 Dec - 22:40:19 10° SSW 22:48:35 31° SE 22:56:39 10° E night (unlit)
12 Dec - 00:42:24 10° SW 00:52:08 61° SSE 01:01:30 10° E visible
12 Dec - 02:46:43 10° W 02:56:30 74° S 03:05:54 10° E visible
12 Dec - 04:51:26 10° W 05:00:39 53° SSW 05:09:32 10° SE visible
12 Dec - 06:57:02 10° W 07:03:39 22° SW 07:10:09 10° S visible
12 Dec - 22:15:25 10° S 22:23:27 29° SE 22:31:20 10° E night (unlit)
13 Dec - 00:17:12 10° SW 00:26:55 59° SSE 00:36:18 10° E night (unlit)
13 Dec - 02:21:27 10° W 02:31:17 74° S 02:40:42 10° E visible
13 Dec - 04:26:10 10° W 04:35:29 55° SSW 04:44:28 10° SE visible
13 Dec - 06:31:36 10° W 06:38:35 24° SW 06:45:26 10° S visible
13 Dec - 21:50:33 10° S 21:58:20 27° SE 22:05:59 10° E night (unlit)
13 Dec - 23:52:02 10° SW 00:01:43 57° SSE 00:11:06 10° E night (unlit)
14 Dec - 01:56:11 10° W 02:06:03 74° S 02:15:31 10° E visible
14 Dec - 04:00:54 10° W 04:10:19 57° SSW 04:19:22 10° SE visible
14 Dec - 06:06:11 10° W 06:13:31 26° SW 06:20:41 10° S visible
14 Dec - 21:25:43 10° S 21:33:14 25° SE 21:40:37 10° E visible
14 Dec - 23:26:52 10° SW 23:36:31 55° SSE 23:45:52 10° E night (unlit)
15 Dec - 01:30:55 10° W 01:40:49 74° S 01:50:19 10° E visible
15 Dec - 03:35:37 10° W 03:45:08 59° SSW 03:54:15 10° SE visible
15 Dec - 05:40:49 10° W 05:48:26 28° SW 05:55:52 10° S visible
15 Dec - 21:00:56 10° S 21:08:08 23° SE 21:15:13 10° E visible
15 Dec - 23:01:43 10° SW 23:11:20 53° SSE 23:20:39 10° E night (unlit)
